This demonstration page uses our WeatherBlox Daily Observations layout. Learn more.

41.55636, -103.73856

Hourly Observations for July 16, 2019

Temp ( °F °C ) Dew Point ( °F °C ) Humidity (%) Winds ( mph kmh ) Pressure ( in mb ) Visibility ( mi km ) Precip ( " mm )
12:58 am 00:58 Partly Cloudy with Nearby Thunderstorms 75 24.1 55 12.5 48 48 Calm 29.91 1013 10 16.0934 0 0
1:58 am 01:58 Mostly Cloudy 68 19.9 56 13.1 65 65 NE 7 11 29.93 1014 10 16.0934 0 0
2:58 am 02:58 Clear 64 17.7 55 12.8 73 73 S 7 11 29.93 1014 10 16.0934 0 0
3:58 am 03:58 Mostly Cloudy 66 19.1 54 12.1 64 64 NNE 9 15 29.96 1014 10 16.0934 0 0
4:58 am 04:58 Mostly Clear 63 17.3 55 12.8 75 75 NNE 6 9 29.96 1014 10 16.0934 0 0
5:58 am 05:58 Clear 62 16.4 55 12.6 78 78 E 7 11 29.96 1015 10 16.0934 0 0
6:58 am 06:58 Clear 60 15.5 54 12.3 81 81 SSE 9 15 29.93 1014 10 16.0934 0 0
7:58 am 07:58 Clear 58 14.5 54 12.4 87 87 S 6 9 29.92 1013 10 16.0934 0 0
8:58 am 08:58 Mostly Clear 60 15.3 55 12.8 85 85 N 12 19 29.94 1014 10 16.0934 0 0
9:58 am 09:58 Clear 58 14.3 55 12.7 90 90 NNE 9 15 29.93 1014 10 16.0934 0 0
10:58 am 10:58 Mostly Cloudy 58 14.6 55 13 90 90 NNE 3 6 29.93 1014 10 16.0934 0 0
11:58 am 11:58 Mostly Cloudy 58 14.5 56 13.4 93 93 SE 10 17 29.93 1014 10 16.0934 0 0
12:58 pm 12:58 Partly Cloudy 60 15.3 58 14.2 93 93 SSE 6 9 29.94 1014 10 16.0934 0 0
1:58 pm 13:58 Sunny 63 17.4 59 14.8 85 85 S 10 17 29.95 1014 10 16.0934 0 0
2:58 pm 14:58 Sunny 68 20 58 14.3 70 70 S 13 20 29.94 1014 10 16.0934 0 0
4:56 pm 16:56 Sunny 74 23.5 60 15.7 62 62 S 14 22 29.91 1013 10 16.0934 0 0
5:56 pm 17:56 Sunny 78 25.5 60 15.6 54 54 SSW 14 22 29.9 1013 10 16.0934 0 0
6:57 pm 18:57 Sunny 81 27.4 60 15.5 48 48 S 18 30 29.87 1012 10 16.0934 0 0
7:56 pm 19:56 Sunny 85 29.2 59 15.1 42 42 S 15 24 29.85 1011 10 16.0934 0 0
8:58 pm 20:58 Sunny 86 30.2 59 15.1 40 40 SSE 12 19 29.82 1010 10 16.0934 0 0
9:58 pm 21:58 Mostly Cloudy 82 27.5 60 15.3 47 47 NNE 8 13 29.83 1010 10 16.0934 0 0
10:58 pm 22:58 Mostly Sunny 83 28.3 45 7.1 26 26 ENE 10 17 29.84 1011 10 16.0934 0 0
11:58 pm 23:58 Sunny 82 28 51 10.8 34 34 ESE 14 22 29.8 1009 10 16.0934 0 0

Powered by AerisWeather